Overview Statistics Trail Chart Weather Telemetry Raw packets
 

This is the latest recevied weather packets stored in our database for station/object CT2IRJ-11. If no packets are shown the sender has not sent any weather packets the latest 10 day(s).

<< 2 3 4 5 6 7 8 >>
Time Temp. Humidity Pressure Rain* Wind** Luminosity Snow
1788594606 21.67° C 82% 1018.3 hPa 0 mm - 105 W/m² -
1788594306 21.67° C 83% 1018.3 hPa 0 mm - 99 W/m² -
1788594006 21.11° C 84% 1018.3 hPa 0 mm - 92 W/m² -
1788593706 21.11° C 84% 1018.3 hPa 0 mm - 85 W/m² -
1788593406 20.56° C 85% 1018.3 hPa 0 mm - 75 W/m² -
1788593106 20.56° C 86% 1018.3 hPa 0 mm - 68 W/m² -
1788592820 20.56° C 86% 1017.9 hPa 0 mm - 61 W/m² -
1788592505 20° C 87% 1018.3 hPa 0 mm - 54 W/m² -
1788592205 20° C 87% 1018.3 hPa 0 mm - 49 W/m² -
1788591905 20° C 88% 1018.3 hPa 0 mm - 43 W/m² -
1788591605 20° C 89% 1018.3 hPa 0 mm - 38 W/m² -
1788591305 19.44° C 90% 1018.3 hPa 0 mm - 34 W/m² -
1788591005 19.44° C 90% 1017.9 hPa 0 mm - 31 W/m² -
1788590706 18.89° C 90% 1017.9 hPa 0 mm - 25 W/m² -
1788590405 18.89° C 90% 1017.6 hPa 0 mm - 18 W/m² -
1788590105 18.89° C 91% 1017.6 hPa 0 mm - 13 W/m² -
1788589805 18.33° C 91% 1017.6 hPa 0 mm - 7 W/m² -
1788589506 18.33° C 91% 1017.6 hPa 0 mm - 5 W/m² -
1788589205 18.33° C 90% 1017.6 hPa 0 mm - 3 W/m² -
1788588905 18.33° C 89% 1017.6 hPa 0 mm - 2 W/m² -
1788588606 18.89° C 90% 1017.6 hPa 0 mm - 0 W/m² -
1788588306 18.89° C 90% 1017.3 hPa 0 mm - 0 W/m² -
1788588006 18.89° C 90% 1017.6 hPa 0 mm - 0 W/m² -
1788587705 18.89° C 90% 1017.3 hPa 0 mm - 0 W/m² -
1788587406 18.89° C 90% 1017.6 hPa 0 mm - 0 W/m² -

* Rain latest hour (hover to see other rain measurements)
** Current wind speed in m/s (hover to see current wind gust speed)